Regional Weather Roundup
Issued by NWS

Home | Current Version | Previous Version | Graphics & Text | Print | Product List | Glossary On
Versions: 1 2 3 4 5 6 7 8 9 10 11 12 13 14 15 16 17 18 19 20 21 22 23 24 25 26 27 28 29 30 31 32 33 34 35 36 37 38 39 40 41 42 43 44 45 46 47 48 49 50
000
ASUS43 KLMK 300310
RWRKY
KENTUCKY REGIONAL WEATHER ROUNDUP
NATIONAL WEATHER SERVICE LOUISVILLE KY
1100 PM EDT THU SEP 29 2016

NOTE "FAIR" INDICATES FEW OR NO CLOUDS BELOW 12,000 FEET
WITH NO SIGNIFICANT WEATHER AND/OR OBSTRUCTIONS TO VISIBILITY.

KYZ001>023-026-027-061>063-070>075-300400-
WESTERN AND SOUTH CENTRAL KENTUCKY

CITY           SKY/WX    TMP DP  RH WIND       PRES   REMARKS
PADUCAH        CLEAR     57  54  89 W3        30.13S
HENDERSON      CLOUDY    55  50  82 CALM      30.09F
OWENSBORO      MOCLDY   N/A N/A N/A S6        30.10F
HOPKINSVILLE   MOCLDY    56  55  95 SW5       30.11S
BOWLING GREEN  CLEAR     55  52  89 CALM      30.11F
GLASGOW        FOG      N/A N/A N/A CALM      30.11S VSB 1/2
$$

KYZ024-025-028>034-038-045-046-053-300400-
NORTH CENTRAL KENTUCKY

CITY           SKY/WX    TMP DP  RH WIND       PRES   REMARKS
LOUISVILLE/SDF PTCLDY    57  53  86 W3        30.09S
LOUISVILLE/LOU MOCLDY    57  53  86 CALM      30.09S
FORT KNOX      FOG       50  50  99 N1        30.08R VSB 1/2
$$

KYZ035>037-039>044-047>052-055>060-089>105-300400-
NORTHEAST KENTUCKY

CITY           SKY/WX    TMP DP  RH WIND       PRES   REMARKS
LEXINGTON      RAIN      56  53  90 SW8       30.09S
COVINGTON      CLOUDY    59  57  93 NW6       30.07F
FRANKFORT      LGT RAIN  57  52  83 CALM      30.07F
$$

KYZ054-064>069-076>088-106>120-300400-
SOUTHEAST KENTUCKY

CITY           SKY/WX    TMP DP  RH WIND       PRES   REMARKS
JACKSON        FOG       55  53  93 CALM      30.09S VSB 3/4
LONDON         MOCLDY    54  49  83 S5        30.10S
SOMERSET       CLOUDY    54  50  87 CALM      30.11F
MIDDLESBORO    MOCLDY    52  51  95 CALM      30.10F
MONTICELLO     PTCLDY    50  49  96 W7        30.13R
$$




USA.gov is the U.S. government's official web portal to all federal, state and local government web resources and services.